Weather History for Madison, WI

Change the Weather History Date:

Monday, February 18, 2013

  Actual Average Record
Temperature  
Mean Temperature 34 °F 24 °F  
Max Temperature 45 °F 32 °F 57 °F (1981)
Min Temperature 23 °F 16 °F -19 °F (1936)
Degree Days  
Heating Degree Days 31 41  
Month to date heating degree days 819 781  
Since 1 July heating degree days 4753 5094  
Cooling Degree Days 0 0  
Month to date cooling degree days 0 0  
Year to date cooling degree days 0 0  
Moisture  
Dew Point 28 °F    
Average Humidity 81    
Maximum Humidity 96    
Minimum Humidity 65    
Precipitation  
Precipitation 0.18 in 0.06 in 0.69 in (1882)
Month to date precipitation 1.75 0.87  
Year to date precipitation 4.62 2.10  
Snow  
Snow 0.80 in 0.40 in 4.60 in (2000)
Month to date snowfall 11.9 7.1  
Since 1 July snowfall 44.3 37.6  
Snow Depth 4.00 in    
Sea Level Pressure  
Sea Level Pressure 29.58 in    
Wind  
Wind Speed 11 mph (WSW)    
Max Wind Speed 18 mph    
Max Gust Speed 28 mph    
Visibility 7 miles    
Events Rain , Snow    
T = Trace of Precipitation, MM = Missing Value Source: NWS Daily Summary

Daily Weather History Graph

Daily Weather History Graph

Search for Another Location

Airport:

Trip Planner

Search our weather history database for the weather conditions in past years. The results will help you decide how hot, cold, wet, or windy it might be!

Date:

Astronomy

Feb. 18, 2013 Rise Set
Actual Time 6:50 AM CST 5:32 PM CST
Civil Twilight 6:21 AM CST 6:01 PM CST
Nautical Twilight 5:48 AM CST 6:35 PM CST
Astronomical Twilight 5:15 AM CST 7:07 PM CST
Moon 11:14 AM CST (2/18) 1:34 AM CST (2/18)
Length of Visible Light 11h 40m
Length of Day
10h 42m
First Quarter, 58% of the Moon is Illuminated
Feb 18
First Quarter
Feb 25
Full
Mar 4
Last Quarter
Mar 11
New
Mar 19
First Quarter

Hourly Weather History & Observations

Time (CST) Temp. Windchill Dew Point Humidity Pressure Visibility Wind Dir Wind Speed Gust Speed Precip Events Conditions
12:53 AM 28.0 °F 18.1 °F 19.0 °F 69% 29.91 in 10.0 mi South 11.5 mph - N/A   Clear
1:53 AM 28.0 °F 16.5 °F 19.0 °F 69% 29.86 in 10.0 mi SSE 15.0 mph - N/A   Clear
2:53 AM 28.0 °F 18.1 °F 19.0 °F 69% 29.82 in 10.0 mi SSE 11.5 mph - N/A   Clear
3:53 AM 28.0 °F 17.0 °F 19.9 °F 72% 29.77 in 10.0 mi SSE 13.8 mph - N/A   Clear
4:53 AM 30.0 °F 19.1 °F 21.0 °F 69% 29.75 in 10.0 mi South 15.0 mph - N/A   Clear
5:53 AM 30.0 °F 19.1 °F 21.9 °F 72% 29.73 in 10.0 mi South 15.0 mph - N/A   Clear
6:53 AM 30.0 °F 19.5 °F 21.9 °F 72% 29.70 in 10.0 mi South 13.8 mph - N/A   Clear
7:53 AM 30.2 °F 20.8 °F 23.0 °F 75% 29.66 in 10.0 mi South 11.5 mph - N/A   Clear
8:53 AM 32.0 °F 23.6 °F 24.1 °F 73% 29.68 in 10.0 mi South 10.4 mph - N/A   Clear
9:53 AM 35.1 °F 26.9 °F 27.0 °F 72% 29.64 in 10.0 mi South 11.5 mph - N/A   Clear
10:53 AM 37.9 °F 29.6 °F 28.0 °F 68% 29.63 in 10.0 mi South 13.8 mph 21.9 mph N/A   Clear
11:53 AM 39.9 °F 32.5 °F 30.0 °F 68% 29.60 in 10.0 mi South 12.7 mph - N/A   Clear
12:53 PM 43.0 °F 36.8 °F 32.0 °F 65% 29.57 in 10.0 mi South 11.5 mph - N/A   Clear
1:53 PM 45.0 °F 39.7 °F 34.0 °F 65% 29.54 in 10.0 mi South 10.4 mph - N/A   Clear
2:53 PM 45.0 °F 40.6 °F 34.0 °F 65% 29.52 in 10.0 mi South 8.1 mph - N/A   Overcast
3:53 PM 44.1 °F 41.5 °F 36.0 °F 73% 29.50 in 10.0 mi SSW 4.6 mph - 0.00 in Rain Light Rain
4:32 PM 42.8 °F - 35.6 °F 76% 29.48 in 10.0 mi Calm Calm - 0.00 in Rain Light Rain
4:53 PM 39.2 °F - 35.6 °F 87% 29.48 in 6.0 mi Calm Calm - N/A Rain Light Rain
5:01 PM 39.2 °F - 35.6 °F 87% 29.48 in 4.0 mi Calm Calm - 0.01 in Rain Light Rain
5:53 PM 39.0 °F 34.0 °F 35.1 °F 86% 29.51 in 6.0 mi WNW 6.9 mph - 0.02 in Rain Light Rain
6:06 PM 39.2 °F 34.2 °F 35.6 °F 87% 29.48 in 5.0 mi WNW 6.9 mph - 0.02 in Rain Light Rain
6:53 PM 36.0 °F 30.3 °F 33.1 °F 89% 29.51 in 5.0 mi NW 6.9 mph 17.3 mph 0.03 in Rain Light Rain
7:08 PM 35.6 °F 29.9 °F 33.8 °F 93% 29.48 in 3.0 mi NW 6.9 mph - N/A Snow Light Snow
7:19 PM 33.8 °F 27.0 °F 32.0 °F 93% 29.48 in 2.0 mi NW 8.1 mph - 0.02 in Snow Light Snow
7:25 PM 33.8 °F 27.7 °F 32.0 °F 93% 29.48 in 1.5 mi WNW 6.9 mph - 0.03 in Snow Light Snow
7:35 PM 33.8 °F 29.6 °F 32.0 °F 93% 29.48 in 1.0 mi WNW 4.6 mph - 0.05 in Snow Light Snow
7:53 PM 33.1 °F 27.7 °F 32.0 °F 96% 29.50 in 1.0 mi WNW 5.8 mph - 0.07 in Snow Light Snow
8:02 PM 33.8 °F 29.6 °F 32.0 °F 93% 29.47 in 0.8 mi NW 4.6 mph - 0.01 in Snow Light Snow
8:18 PM 33.8 °F 29.6 °F 32.0 °F 93% 29.47 in 1.0 mi WNW 4.6 mph - 0.03 in Snow Light Snow
8:53 PM 33.1 °F 27.7 °F 32.0 °F 96% 29.50 in 1.5 mi WNW 5.8 mph - 0.05 in Snow Light Snow
9:49 PM 30.2 °F 20.8 °F 28.4 °F 93% 29.48 in 5.0 mi WNW 11.5 mph 19.6 mph 0.01 in Snow Light Snow
9:53 PM 30.9 °F 20.2 °F 27.0 °F 85% 29.51 in 9.0 mi WNW 15.0 mph 23.0 mph 0.01 in Snow Light Snow
10:22 PM 28.4 °F 16.2 °F 26.6 °F 93% 29.50 in 2.0 mi WNW 17.3 mph 24.2 mph 0.00 in Snow Light Snow
10:30 PM 28.4 °F 16.2 °F 24.8 °F 86% 29.50 in 1.5 mi WNW 17.3 mph 24.2 mph 0.00 in Snow Light Snow
10:43 PM 26.6 °F 14.7 °F 23.0 °F 86% 29.51 in 2.0 mi West 15.0 mph 25.3 mph 0.00 in Snow Light Snow
10:53 PM 27.0 °F 15.6 °F 23.0 °F 85% 29.55 in 4.0 mi WNW 13.8 mph 26.5 mph 0.00 in Snow Light Snow
11:29 PM 24.8 °F 11.9 °F 19.4 °F 80% 29.55 in 10.0 mi WNW 16.1 mph 24.2 mph 0.00 in   Overcast
11:53 PM 23.0 °F 11.1 °F 18.0 °F 81% 29.58 in 10.0 mi WNW 12.7 mph 21.9 mph 0.00 in   Overcast